Home   Weather   Nesodden   Past weeks

Flag for Norway Past Weather in Nesodden, Norway — Yesterday and Last 2 Weeks

Now
48 °F

Sprinkles. Partly sunny.


Feels Like: 45 °F
Forecast: 37 / 55 °F
Wind: 7 mph from Northwest

Location: Statfjord B

Current Time: Oct 1, 2016 at 10:44:57 AM

Latest Report: Oct 1, 2016 at 9:50 AM


Visibility: N/A

Pressure: 29.74 "Hg

Humidity: 82%

Dew Point: 43 °F

Location of NesoddenLocation

Past Weather in Nesodden — Graph

°F

Nesodden Temperature Yesterday

Maximum temperature yesterday: 52 °F (at 2:20 PM)
Minimum temperature yesterday: 48 °F (at 5:50 AM)
Average temperature yesterday: 50 °F

High & Low Weather Summary for the Past Weeks

 TemperatureHumidityPressure
High63 °F (Sep 16, 9:20 AM)100% (Sep 16, 7:50 PM)30.21 "Hg (Sep 16, 7:50 PM)
Low46 °F (Sep 29, 9:50 PM)67% (Sep 23, 1:20 PM)28.82 "Hg (Sep 29, 12:20 PM)
Average55 °F89%29.80 "Hg
* Reported Sep 16 9:20 AM — Oct 1 9:20 AM, Nesodden, Weather by CustomWeather, © 2016

Note: Actual official high and low records may vary slightly from our data, if they occured in-between our weather recording intervals... More about our weather records

Advertising

Nesodden Weather History for the Previous 24 Hours

Scroll right to see more
 ConditionsComfort  
Time TempWeatherWind HumidityBarometerVisibility
9:20 AM
Sat, Oct 1
50 °FDrizzle. Partly sunny.7 mph76%29.71 "HgN/A
8:50 AM48 °FPassing clouds.9 mph76%29.71 "HgN/A
8:20 AM48 °FPartly sunny.10 mph76%29.71 "HgN/A
7:50 AM46 °FOvercast.13 mph82%29.68 "HgN/A
7:20 AM48 °FOvercast.12 mph71%29.68 "HgN/A
6:50 AM48 °FPassing clouds.14 mph76%29.65 "HgN/A
6:20 AM48 °FPartly cloudy.15 mph82%29.65 "HgN/A
5:50 AM48 °FPassing clouds.10 mph76%29.65 "HgN/A
5:20 AM48 °FCool.10 mph82%29.65 "HgN/A
4:50 AM48 °FPassing clouds.13 mph76%29.65 "HgN/A
4:20 AM50 °FLight rain. Passing clouds.16 mph76%29.62 "HgN/A
3:50 AM50 °FPassing clouds.10 mph76%29.62 "HgN/A
3:20 AM50 °FPassing clouds.14 mph76%29.62 "HgN/A
2:50 AM50 °FPassing clouds.13 mph76%29.62 "HgN/A
2:20 AM50 °FPassing clouds.14 mph76%29.59 "HgN/A
1:50 AM50 °FPassing clouds.14 mph82%29.59 "HgN/A
1:20 AM50 °FSprinkles. Passing clouds.16 mph88%29.59 "HgN/A
12:50 AM48 °FPassing clouds.13 mph87%29.59 "HgN/A
12:20 AM50 °FPassing clouds.12 mph88%29.56 "HgN/A
11:50 PM
Fri, Sep 30
50 °FPassing clouds.13 mph88%29.56 "HgN/A
11:20 PM50 °FSprinkles. Passing clouds.15 mph88%29.53 "HgN/A
10:50 PM50 °FSprinkles. Passing clouds.16 mph88%29.53 "HgN/A
10:20 PM50 °FPassing clouds.17 mph76%29.53 "HgN/A
9:50 PM50 °FPassing clouds.15 mph71%29.53 "HgN/A
9:20 PM50 °FPassing clouds.17 mph67%29.50 "HgN/A
8:50 PM50 °FPassing clouds.18 mph67%29.50 "HgN/A
8:20 PM50 °FPassing clouds.18 mph71%29.47 "HgN/A
7:50 PM50 °FPassing clouds.20 mph71%29.47 "HgN/A
7:20 PM50 °FPassing clouds.21 mph71%29.45 "HgN/A
6:50 PM50 °FScattered clouds.18 mph76%29.45 "HgN/A
6:20 PM50 °FPassing clouds.20 mph71%29.45 "HgN/A
5:50 PM52 °FScattered clouds.21 mph67%29.42 "HgN/A
5:20 PM52 °FScattered clouds.21 mph67%29.42 "HgN/A
4:50 PM50 °FPassing clouds.21 mph76%29.42 "HgN/A
4:20 PM50 °FPassing clouds.23 mph71%29.39 "HgN/A
3:50 PM52 °FScattered clouds.24 mph67%29.39 "HgN/A
3:20 PM52 °FCool.26 mph67%29.36 "HgN/A
2:50 PM52 °FCool.29 mph67%29.36 "HgN/A
2:20 PM52 °FScattered clouds.33 mph67%29.33 "HgN/A
1:50 PM50 °FPartly sunny.37 mph82%29.30 "HgN/A
1:20 PM48 °FHeavy rain. Partly sunny.35 mph94%29.30 "Hg2 mi
12:50 PM48 °FLight rain. Partly sunny.39 mph87%29.27 "Hg4 mi
12:20 PM48 °FSprinkles. Partly sunny.39 mph87%29.24 "HgN/A
11:50 AM48 °FSprinkles. Partly sunny.40 mph87%29.21 "HgN/A
11:20 AM48 °FLight rain. Partly sunny.46 mph87%29.21 "HgN/A
10:50 AM50 °FPartly sunny.51 mph76%29.18 "HgN/A
10:20 AM48 °FPartly sunny.47 mph82%29.15 "HgN/A
Weather by CustomWeather, © 2016

See weather overviewHow to use our weather pages